CAPE
0 0 0 0 0 0 0 0 0 0 0 0 0 0 0 0 0 0 0 0 0 0 0 1 0 1 0 0 0 0 1 1 1 0 2 1 2 2 2 4 4 4 5 4
0 0 0 0 0 0 0 0 0 0 0 0 0 0 0 0 0 0 0 0 0 1 2 1 1 1 0 0 0 0 1 1 0 0 1 1 0 2 2 3 3 2 5 6
0 0 0 0 0 0 0 0 0 0 0 0 0 0 2 1 1 2 1 1 1 3 1 2 1 1 1 0 0 0 1 1 0 0 1 0 0 0 1 1 1 4 3 4
0 0 0 0 0 0 0 0 0 0 0 0 0 0 0 1 1 1 1 0 1 0 0 0 0 0 0 0 0 0 1 1 1 2 2 1 1 1 1 0 0 0 1 2
0 0 0 0 0 0 0 0 0 0 0 0 0 0 2 1 0 0 0 1 0 1 0 0 0 0 0 0 0 1 1 2 1 1 2 1 1 0 0 0 0 0 0 0
0 0 0 0 0 0 0 0 0 0 0 1 0 0 0 1 1 0 0 0 0 0 0 0 0 0 0 0 0 0 0 0 0 0 0 1 2 0 0 0 0 0 0 0
0 0 0 0 0 0 0 0 0 0 1 0 0 0 0 0 0 0 1 0 0 0 0 0 0 0 0 0 0 0 0 0 0 0 0 0 0 0 0 0 0 1 1 0
0 0 0 0 0 0 0 0 0 0 0 0 0 0 0 0 0 0 0 0 0 0 0 0 0 0 0 0 0 0 0 0 0 0 0 0 0 0 0 0 0 0 0 1
0 0 0 0 0 1 0 0 0 0 0 0 0 0 0 0 0 0 0 0 0 0 0 0 0 0 0 0 0 0 0 0 0 0 0 0 0 0 0 0 0 0 0 0
0 1 0 0 0 0 0 0 0 0 0 0 1 0 0 0 0 0 0 0 0 0 0 0 0 0 0 0 0 0 0 0 0 0 0 0 0 0 0 0 0 0 0 0
0 0 0 0 0 0 0 0 0 0 0 0 0 0 0 0 0 0 0 0 0 0 0 0 0 0 0 0 0 0 0 0 0 0 0 0 0 0 0 0 0 0 0 0
0 0 0 0 0 0 0 0 0 0 0 0 0 0 0 0 0 0 0 0 0 0 0 0 0 0 0 0 0 0 0 0 0 0 0 0 0 0 0 0 0 0 0 0
0 0 0 0 0 1 0 0 0 0 0 0 0 0 0 0 0 0 0 0 0 0 0 0 0 0 0 0 0 0 0 0 0 0 0 0 0 0 0 0 0 0 0 0
0 0 0 0 1 0 0 0 0 0 0 0 0 0 0 0 0 0 0 0 0 0 0 0 0 0 0 0 0 0 0 0 0 0 0 0 0 0 0 0 0 0 0 0
0 0 0 0 0 0 0 0 0 0 0 0 0 0 0 0 0 0 0 0 0 0 0 0 0 0 0 0 0 0 0 0 0 0 0 0 0 0 0 0 0 0 0 0
0 0 0 0 0 0 0 0 0 0 0 0 0 0 0 0 0 0 0 0 0 0 0 0 0 0 0 0 0 0 0 0 0 0 0 0 0 0 0 0 0 0 0 0
0 0 0 0 0 0 0 0 0 0 0 0 0 0 0 0 0 0 0 0 0 0 0 0 0 0 0 0 0 0 0 0 0 0 0 0 0 0 0 0 0 0 0 0
0 0 0 0 0 0 0 0 0 0 0 0 0 0 0 0 0 0 0 0 0 0 0 0 0 0 0 0 0 0 0 0 0 0 0 0 0 0 0 0 0 0 0 0
0 0 0 0 0 0 0 0 0 0 0 0 0 0 0 0 0 0 0 0 0 0 0 0 0 0 0 0 0 0 0 0 0 0 0 0 0 0 0 0 0 0 0 0
0 0 0 0 0 0 0 0 0 0 0 0 0 0 0 0 0 0 0 0 0 0 0 0 0 0 0 0 0 0 0 0 0 0 0 0 0 0 0 0 0 0 0 0
0 0 0 0 0 0 0 0 0 0 0 0 0 0 0 0 0 0 0 0 0 0 0 0 0 0 0 0 0 0 0 0 0 0 0 0 0 0 0 0 0 0 0 0
0 0 0 0 0 0 0 0 0 0 0 0 0 0 0 0 0 0 0 0 0 0 0 0 0 0 0 0 0 0 0 0 0 0 0 0 0 0 0 0 0 0 0 0
0 0 0 0 0 0 0 0 0 0 0 0 0 0 0 0 0 0 0 0 0 0 0 0 0 0 0 0 0 0 0 0 0 0 0 0 0 0 0 0 0 0 0 0
0 0 0 0 0 0 0 0 0 0 0 0 0 0 0 0 0 0 0 0 0 0 0 0 0 0 0 0 0 0 0 0 0 0 0 0 0 0 0 0 0 0 0 0
0 0 0 0 0 0 0 0 0 0 0 0 0 0 0 0 0 0 0 0 0 0 0 0 0 0 0 0 0 0 0 0 0 0 0 0 0 0 0 0 0 0 0 0
0 0 0 0 0 0 0 0 0 0 0 0 0 0 0 0 0 0 0 0 0 0 0 0 0 0 0 0 0 0 0 0 0 0 0 0 0 0 0 0 0 0 0 0
0 0 0 0 0 0 0 0 0 0 0 0 0 0 0 0 0 0 0 0 0 0 0 0 0 0 0 0 0 0 0 0 0 0 0 0 0 0 0 0 0 0 0 0
CIN
-0 -0 -0 -0 -0 -0 -0 -0 -0 -0 -0 -0 -0 -0 -0 -0 -0 -0 -0 -0 -0 -0 -0 -0 -0 -0 -0 -0 -0 -0 -0 -0 -0 -0 -0 -0 -0 -0 -0 -0 -0 -0 -0 -0
-0 -0 -0 -0 -0 -0 -0 -0 -0 -0 -0 -0 -0 -0 -0 -0 -0 -0 -0 -0 -0 -0 -0 -0 -0 -0 -0 -0 -0 -0 -0 -0 -0 -0 -0 -0 -0 -0 -0 -0 -0 -0 -0 -0
-0 -0 -0 -0 -0 -0 -0 -0 -0 -0 -0 -0 -0 -0 -0 -0 -0 -0 -0 -0 -0 -0 -0 -0 -0 -0 -0 -0 -0 -0 -0 -0 -0 -0 -0 -0 -0 -0 -0 -0 -0 -0 -0 -0
-0 -0 -0 -0 -0 -0 -0 -0 -0 -0 -0 -0 -0 -0 -0 -0 -0 -0 -0 -0 -0 -0 -0 -0 -0 -0 -0 -0 -0 -0 -0 -0 -0 -0 -0 -0 -0 -0 -0 -0 -0 -0 -0 -0
-0 -0 -0 -0 -0 -0 -0 -0 -0 -0 -0 -0 -0 -0 -0 -0 -0 -1 -0 -0 -0 -0 -0 -0 -0 -0 -0 -0 -0 -0 -0 -0 -0 -0 -0 -0 -0 -0 -0 -0 -0 -0 -0 -0
-0 -0 -0 -0 -0 -0 -0 -0 -0 -0 -0 -0 -0 -0 -0 -0 -1 -0 -0 -0 -0 -0 -0 -0 -0 -0 -0 -0 -0 -0 -0 -0 -0 -0 -0 -0 -0 -0 -0 -0 -0 -0 -0 -0
-0 -0 -0 -0 -0 -0 -0 -0 -0 -0 -0 -0 -0 -0 -0 -1 -0 -0 -0 -0 -0 -0 -0 -0 -0 -0 -0 -0 -0 -0 -0 -0 -0 -0 -0 -0 -0 -0 -0 -0 -0 -0 -0 -0
-0 -0 -0 -0 -0 -0 -0 -0 -0 -0 -0 -0 -0 -0 -0 -0 -0 -0 -0 -0 -0 -0 -0 -0 -0 -0 -0 -0 -0 -0 -3 -0 -0 -0 -0 -0 -0 -0 -0 -0 -0 -0 -0 -0
-0 -0 -0 -0 -0 -0 -0 -0 -0 -0 -0 -0 -0 -0 -0 -0 -0 -0 -0 -0 -0 -0 -0 -0 -0 -0 -0 -0 -0 -0 -0 -0 -0 -0 -0 -0 -0 -0 -0 -0 -0 -0 -0 -0
-0 -0 -0 -0 -0 -0 -0 -0 -0 -0 -0 -0 -0 -0 -0 -0 -0 -0 -0 -0 -0 -0 -0 -0 -0 -0 -0 -0 -0 -0 -0 -0 -0 -0 -0 -0 -0 -0 -0 -0 -0 -0 -0 -0
-0 -0 -0 -0 -0 -0 -0 -0 -0 -0 -0 -0 -0 -0 -0 -0 -0 -0 -0 -0 -0 -0 -0 -0 -0 -0 -0 -0 -0 -0 -0 -0 -0 -0 -0 -0 -0 -0 -0 -0 -0 -0 -0 -0
-0 -0 -0 -0 -0 -0 -0 -0 -0 -0 -0 -0 -0 -0 -0 -0 -0 -0 -0 -0 -0 -0 -0 -0 -0 -0 -0 -0 -0 -0 -0 -0 -0 -0 -0 -0 -0 -0 -0 -0 -0 -0 -0 -0
-0 -0 -0 -0 -0 -0 -0 -0 -0 -0 -0 -0 -0 -0 -0 -0 -0 -0 -0 -0 -0 -0 -0 -0 -0 -0 -0 -0 -0 -0 -0 -0 -0 -0 -0 -0 -0 -0 -0 -0 -0 -0 -0 -0
-0 -0 -0 -0 -0 -0 -1 -0 -0 -0 -0 -0 -0 -0 -0 -0 -0 -0 -0 -0 -0 -0 -0 -0 -0 -0 -0 -0 -0 -0 -0 -0 -0 -0 -0 -0 -0 -0 -0 -0 -0 -0 -0 -0
-0 -0 -0 -0 -0 -0 -0 -0 -0 -0 -0 -0 -0 -0 -0 -0 -0 -0 -0 -0 -0 -0 -0 -0 -0 -0 -0 -0 -0 -0 -0 -0 -0 -0 -0 -0 -0 -0 -0 -0 -0 -0 -0 -0
-0 -0 -0 -0 -0 -0 -0 -0 -0 -0 -0 -0 -0 -0 -0 -0 -0 -0 -0 -0 -0 -0 -0 -0 -0 -0 -0 -0 -0 -0 -0 -0 -0 -0 -0 -0 -0 -0 -0 -0 -0 -0 -0 -0
-0 -0 -0 -0 -0 -0 -0 -0 -0 -0 -0 -0 -0 -0 -0 -0 -0 -0 -0 -0 -0 -0 -0 -0 -0 -0 -0 -0 -0 -0 -0 -0 -0 -0 -0 -0 -0 -0 -0 -0 -0 -0 -0 -0
-0 -0 -0 -0 -0 -0 -0 -0 -0 -0 -0 -0 -0 -0 -0 -0 -0 -0 -0 -0 -0 -0 -0 -0 -0 -0 -0 -0 -0 -0 -0 -0 -0 -0 -0 -0 -0 -0 -0 -0 -0 -0 -0 -0
-0 -0 -0 -0 -0 -0 -0 -0 -0 -0 -0 -0 -0 -0 -0 -0 -0 -0 -0 -0 -0 -0 -0 -0 -0 -0 -0 -0 -0 -0 -0 -0 -0 -0 -0 -0 -0 -0 -0 -0 -0 -0 -0 -0
-0 -0 -0 -0 -0 -0 -0 -0 -0 -0 -0 -0 -0 -0 -0 -0 -0 -0 -0 -0 -0 -0 -0 -0 -0 -0 -0 -0 -0 -0 -0 -0 -0 -0 -0 -0 -0 -0 -0 -0 -0 -0 -0 -0
-0 -0 -0 -0 -0 -0 -0 -0 -0 -0 -0 -0 -0 -0 -0 -0 -0 -0 -0 -0 -0 -0 -0 -0 -0 -0 -0 -0 -0 -0 -0 -0 -0 -0 -0 -0 -0 -0 -0 -0 -0 -0 -0 -0
-0 -0 -0 -0 -0 -0 -0 -0 -0 -0 -0 -0 -0 -0 -0 -0 -0 -0 -0 -0 -0 -0 -0 -0 -0 -0 -0 -0 -0 -0 -0 -0 -0 -0 -0 -0 -0 -0 -0 -0 -0 -0 -0 -0
-0 -0 -0 -0 -0 -0 -0 -0 -0 -0 -0 -0 -0 -0 -0 -0 -0 -0 -0 -0 -0 -0 -0 -0 -0 -0 -0 -0 -0 -0 -0 -0 -0 -0 -0 -0 -0 -0 -0 -0 -0 -0 -0 -0
-0 -0 -0 -0 -0 -0 -0 -0 -0 -0 -0 -0 -0 -0 -0 -0 -0 -0 -0 -0 -0 -0 -0 -0 -0 -0 -0 -0 -0 -0 -0 -0 -0 -0 -0 -0 -0 -0 -0 -0 -0 -0 -0 -0
-0 -0 -0 -0 -0 -0 -0 -0 -0 -0 -0 -0 -0 -0 -0 -0 -0 -0 -0 -0 -0 -0 -0 -0 -0 -0 -0 -0 -0 -0 -0 -0 -0 -0 -0 -0 -0 -0 -0 -0 -0 -0 -0 -0
-0 -0 -0 -0 -0 -0 -0 -0 -0 -0 -0 -0 -0 -0 -0 -0 -0 -0 -0 -0 -0 -0 -0 -0 -0 -0 -0 -0 -0 -0 -0 -0 -0 -0 -0 -0 -0 -0 -0 -0 -0 -0 -0 -0
-0 -0 -0 -0 -0 -0 -0 -0 -0 -0 -0 -0 -0 -0 -0 -0 -0 -0 -0 -0 -0 -0 -0 -0 -0 -0 -0 -0 -0 -0 -0 -0 -0 -0 -0 -0 -0 -0 -0 -0 -0 -0 -0 -0
Wind_Speed
24 19 16 22 16 15 13 16 19 23 18 18 18 19 21 23 25 29 32 33 33 34 34 33 33 34 33 33 33 33 33 34 34 36 36 37 38 38 38 35 34 33 30 29
24 22 17 19 21 20 21 23 21 15 17 17 19 21 25 27 28 30 31 31 31 31 32 32 32 32 31 31 31 31 31 32 33 35 36 36 37 37 37 35 32 29 29 28
24 18 21 23 20 21 17 21 24 24 17 14 19 21 24 25 26 27 28 29 29 30 30 30 29 29 28 28 28 29 29 31 32 33 35 36 36 36 35 34 32 29 28 27
17 11 18 16 17 16 14 18 18 16 15 15 15 18 22 24 25 26 26 26 27 27 26 26 26 25 26 26 26 27 28 30 31 33 33 35 36 35 33 32 32 30 30 28
15 14 14 15 18 17 17 19 18 18 14 13 12 17 22 21 22 22 22 22 23 23 23 23 24 24 24 25 26 27 29 29 30 31 32 32 33 32 31 31 32 32 28 26
16 20 22 14 12 12 15 18 16 17 17 14 12 22 19 17 19 19 19 20 20 21 19 18 16 15 17 19 23 24 25 26 27 28 29 29 30 29 29 30 31 31 30 29
19 18 16 13 15 15 19 18 14 16 18 15 14 15 10 13 16 16 17 19 17 15 14 13 11 12 16 20 19 19 23 23 25 28 30 28 26 28 28 30 30 30 31 31
15 16 17 18 16 15 13 13 14 15 16 13 11 12 12 11 15 15 12 9 10 13 13 12 11 11 14 18 20 19 19 22 26 28 29 31 28 27 28 29 29 31 31 30
15 14 13 13 11 12 11 12 13 14 14 13 13 13 9 16 13 9 9 8 9 7 10 13 15 16 15 15 16 21 22 25 29 31 32 33 33 33 31 30 29 30 31 31
11 10 9 11 12 13 13 13 13 15 16 16 16 7 11 15 6 6 5 7 11 12 12 12 11 13 12 11 12 18 24 27 30 32 33 34 35 35 36 36 35 34 32 31
12 6 8 9 10 12 13 13 11 15 17 21 19 12 14 12 10 9 11 9 8 6 4 5 7 11 14 17 23 27 29 31 32 33 33 33 33 35 35 36 36 36 35 35
13 6 8 8 11 12 11 12 11 14 14 12 14 13 11 11 8 4 4 5 7 9 11 12 17 21 23 26 29 29 30 32 33 33 33 34 34 33 33 34 37 37 35 36
8 6 9 11 12 10 10 10 12 14 12 11 8 7 3 2 4 7 10 12 14 18 21 22 25 25 27 28 29 31 31 32 33 34 34 35 35 35 35 32 36 38 36 36
7 9 7 9 10 10 9 11 12 10 7 2 4 4 5 8 11 15 18 20 20 21 22 24 24 25 26 27 29 31 33 33 33 33 34 35 35 35 36 36 37 38 37 37
6 9 6 8 9 8 6 8 8 5 6 2 2 4 7 12 13 13 16 18 19 21 22 24 25 26 26 28 31 31 32 34 34 34 35 36 36 36 37 36 36 37 37 37
5 5 5 7 9 7 4 4 2 2 4 1 2 4 7 11 14 14 15 17 18 20 22 23 25 27 28 30 32 32 34 35 34 35 36 37 36 37 38 38 37 38 39 39
1 1 4 5 7 5 1 1 2 4 2 2 2 5 8 11 13 15 16 18 19 20 22 24 26 28 29 31 32 33 33 34 35 35 37 37 37 38 38 38 39 38 37 36
4 3 2 2 4 2 1 1 1 3 3 2 2 5 8 9 12 14 17 17 19 21 23 25 26 28 30 32 32 32 34 34 35 36 36 37 37 37 37 38 38 39 39 36
6 5 5 5 4 5 1 1 1 2 1 1 1 4 7 10 11 13 15 16 17 21 23 26 26 29 30 32 32 33 34 35 35 35 36 36 37 37 38 38 38 38 37 37
5 6 5 5 4 5 4 2 1 1 3 2 2 5 7 9 11 13 15 18 18 20 21 25 27 29 31 32 33 33 34 34 35 36 36 36 36 36 36 36 37 36 36 36
6 6 5 6 5 6 4 4 2 2 4 2 2 4 6 9 11 13 13 17 18 19 20 22 26 30 31 32 32 33 34 35 36 37 37 37 37 36 35 35 34 34 34 34
11 10 8 5 6 9 9 9 5 3 2 3 3 5 7 9 11 14 15 16 18 20 23 20 25 29 31 30 31 32 34 36 36 37 37 37 38 38 38 38 38 33 32 31
13 10 5 5 7 7 6 3 1 2 1 3 5 7 8 10 11 13 16 17 18 22 21 23 25 29 31 31 32 34 35 36 36 36 36 37 37 37 36 37 37 38 38 33
13 10 8 6 3 3 4 4 3 1 3 4 5 8 11 12 16 16 16 18 20 23 22 22 25 29 30 31 33 35 35 35 35 36 37 36 36 36 35 36 36 35 35 35
2 2 1 1 2 3 1 1 1 2 3 5 6 9 13 14 15 16 17 19 21 22 22 22 26 28 30 32 33 34 34 34 35 36 36 36 36 35 35 36 35 35 34 33
7 3 2 3 3 1 3 2 2 1 4 5 7 10 13 15 16 17 20 21 21 23 23 24 27 29 30 31 33 33 34 34 35 36 35 36 36 35 36 35 35 34 33 32
7 6 5 3 2 1 4 3 1 1 3 5 7 10 12 14 16 18 19 21 22 24 25 27 27 29 30 31 32 33 33 34 35 35 34 35 35 36 35 35 34 33 33 32
Wind_Direction
291 297 305 298 311 294 291 299 301 299 299 300 302 304 306 310 311 313 316 320 322 325 328 331 332 332 331 332 333 332 330 331 331 330 332 336 340 342 342 331 328 327 315 314
285 286 295 298 297 297 297 297 302 313 307 306 311 312 310 313 315 316 318 321 328 331 332 332 330 330 331 331 333 334 335 336 338 338 341 343 347 349 349 341 336 332 323 317
281 282 288 291 293 294 302 306 300 297 305 316 312 315 316 318 323 323 326 328 330 331 333 333 332 333 335 335 337 339 339 342 344 346 350 352 354 357 353 350 345 343 337 333
291 293 285 299 302 309 306 309 316 320 319 322 328 331 328 329 328 329 331 335 337 337 340 343 344 344 345 344 345 346 347 348 351 354 355 357 0 0 355 351 352 351 350 342
287 283 300 303 305 303 306 306 319 318 331 336 340 340 335 339 342 342 343 347 349 352 352 351 350 353 355 359 358 359 357 356 356 360 0 1 1 360 359 358 360 0 355 355
279 278 284 308 324 333 326 312 329 332 327 336 338 324 333 349 357 1 2 358 354 356 349 339 321 313 331 344 355 353 358 360 359 3 2 3 2 1 1 4 7 7 7 2
275 286 307 310 311 323 312 321 344 343 339 335 332 343 20 18 359 347 347 20 357 335 332 317 300 317 337 351 351 346 355 356 359 4 5 2 360 1 1 4 6 7 9 9
282 292 294 293 312 321 347 0 2 0 3 10 27 37 37 347 31 7 351 292 317 343 335 329 327 330 342 347 351 344 345 356 3 4 4 5 360 357 358 360 2 4 4 4
286 290 316 327 352 6 22 31 27 31 28 43 49 57 19 63 25 338 321 303 330 312 338 344 345 346 342 338 341 352 354 359 11 11 11 9 6 4 1 359 357 357 360 359
290 306 337 358 11 26 42 48 42 45 56 67 68 40 44 55 337 337 291 333 351 355 350 339 331 335 334 329 331 345 358 359 4 9 14 12 14 14 10 7 5 1 354 352
295 347 4 20 38 54 58 59 44 55 68 80 77 58 59 46 28 11 8 348 338 315 278 289 310 332 335 337 350 4 9 11 10 10 8 11 13 12 13 12 8 3 2 360
305 98 351 72 79 77 70 67 62 71 67 60 63 59 50 44 20 321 286 284 322 334 343 339 352 358 352 355 5 9 9 10 9 6 4 5 5 8 12 11 5 2 0 357
347 24 46 79 84 73 74 75 75 77 67 66 50 43 263 289 344 3 9 10 11 16 18 14 18 11 2 358 359 5 7 3 5 4 5 4 5 4 2 5 2 0 359 356
52 54 40 83 85 85 78 79 78 67 58 1 40 24 25 30 34 43 54 56 44 33 20 14 7 2 351 350 358 7 6 6 8 7 4 3 2 2 359 359 356 354 355 352
347 329 79 85 91 85 77 78 76 53 244 284 324 28 38 49 42 28 38 36 24 17 15 10 4 356 346 348 1 11 9 4 4 4 3 1 360 358 357 356 356 353 350 349
358 51 86 100 105 99 94 78 49 39 247 287 16 21 36 43 43 28 19 18 20 17 11 5 0 354 351 358 5 7 4 2 4 1 360 359 360 358 355 354 353 351 349 346
54 81 127 120 116 117 174 85 71 80 248 270 15 41 44 42 41 40 35 32 29 20 18 11 4 3 3 3 7 8 6 3 4 3 1 360 357 356 355 352 350 348 347 347
286 267 222 149 134 180 230 162 112 87 248 262 48 48 41 29 41 49 62 53 29 14 12 10 8 9 7 5 9 8 5 3 3 2 1 0 358 356 355 352 350 348 346 346
257 248 238 231 234 239 210 213 225 90 225 258 19 29 34 39 39 37 24 39 23 12 12 7 13 11 8 6 7 6 4 3 2 1 360 359 357 356 353 351 349 347 346 344
248 245 235 233 234 240 244 244 170 244 256 265 18 42 36 29 27 24 30 23 20 21 19 12 11 8 5 3 3 4 3 2 360 358 357 356 355 354 353 351 350 348 346 344
235 228 225 231 245 254 259 248 235 240 251 275 350 18 29 31 29 25 32 16 18 19 17 14 9 7 5 3 2 1 1 359 358 357 355 354 353 351 350 349 347 346 345 344
233 236 239 246 250 252 254 251 246 232 251 291 340 23 22 16 18 15 18 17 20 14 8 16 7 5 4 5 3 3 1 360 359 358 357 355 354 351 349 348 346 341 341 342
241 247 260 266 260 260 260 258 189 97 69 56 57 41 16 14 18 18 7 14 16 9 10 7 6 3 3 3 4 2 0 360 359 359 358 356 355 354 353 350 349 348 346 341
248 260 264 270 288 273 252 250 260 318 47 47 15 5 360 1 358 7 15 13 8 3 8 8 7 4 5 3 1 0 0 1 1 360 358 357 356 354 354 352 350 349 348 347
339 308 333 346 309 282 240 243 297 27 22 12 7 356 350 357 359 7 10 9 7 8 11 11 6 5 4 2 2 2 2 2 1 360 359 358 356 356 355 353 352 350 347 345
81 53 342 310 310 286 259 260 290 40 49 17 357 357 358 360 6 8 6 9 11 9 9 7 4 3 2 3 3 3 3 3 1 0 1 359 359 358 356 354 353 351 349 348
73 80 89 18 50 301 261 275 309 353 359 4 5 3 7 7 7 9 10 9 8 7 6 4 4 4 4 4 4 4 4 3 2 2 3 1 0 359 358 357 355 354 352 351